Location: *
(55.5817°S, 142.4781°W)
Time: 05:59:58
(UTC+00:00)

Cosmos 1607 - Pass Details

Date: 29 April 2025
Orbit: 929 x 973 km, 65.0° (Epoch: 23 May)

Event Time Altitude Azimuth Distance (km) Brightness Sun altitude
Exits shadow 14:24:09 38° 261° (W) 1,448 4.4 -20.9°
Maximum altitude 14:26:17 53° 208° (SSW) 1,182 4.2 -20.6°
Drops below altitude 10° 14:32:34 10° 131° (SE) 2,740 7.1 -19.8°
Sets 14:35:15 0° 126° (SE) 3,694 8.0 -19.4°
